Theta_e
289 289 288 288 288 288 287 287 286 286 285 285 284 284 284 284 284 284 284 284 284 284 284 284 284 284 284 284 284 283 283 283 283 283 283 283 283 283 283 283 283 283
288 288 288 287 287 287 286 286 286 285 285 285 285 284 284 284 284 284 284 284 284 284 284 284 284 284 283 283 283 283 283 282 282 282 282 282 282 282 282 282 282 282
288 288 287 287 287 286 286 286 286 285 285 285 284 284 284 284 284 284 284 284 284 284 284 284 284 284 284 283 283 283 282 283 282 282 282 282 282 282 282 282 282 282
287 287 287 287 286 286 286 286 285 285 285 284 284 284 284 284 284 285 285 285 285 285 285 285 285 284 284 284 284 283 283 283 283 282 282 282 282 282 282 282 282 282
287 287 286 286 286 286 285 285 285 284 284 284 284 284 285 285 286 286 286 286 286 286 286 286 286 285 285 285 284 284 283 283 282 283 282 282 282 282 282 282 282 282
286 286 286 286 286 285 285 285 285 284 284 285 285 286 286 286 286 287 287 287 287 287 287 287 287 286 286 286 285 284 284 283 283 283 282 282 282 281 281 281 281 281
286 286 286 286 285 285 285 284 284 284 285 286 287 287 287 287 287 287 287 287 287 287 287 287 287 287 286 286 285 285 284 283 283 282 282 282 281 281 281 280 280 280
286 286 285 285 285 285 284 284 285 285 286 287 287 287 287 287 287 287 287 287 287 287 287 286 286 286 285 285 284 284 283 283 282 282 281 281 281 281 280 280 280 280
285 285 285 285 284 284 284 285 285 286 287 287 287 287 287 287 287 287 287 287 287 286 286 286 285 285 284 284 283 283 282 282 281 281 281 280 280 280 280 279 279 279
285 285 285 284 284 284 284 285 286 287 287 287 287 287 287 287 287 287 287 287 286 286 285 284 284 283 283 283 283 282 282 281 281 280 280 280 279 279 279 279 278 278
285 285 285 284 284 284 284 285 286 287 287 287 287 287 287 287 287 287 286 286 285 284 284 283 283 283 283 282 282 282 281 281 280 280 279 279 278 278 278 278 278 278
285 285 285 284 284 284 285 286 287 287 287 287 287 287 287 287 287 286 285 285 284 283 283 283 282 282 282 282 281 281 281 280 280 279 279 278 278 278 277 277 277 277
285 285 285 284 284 284 285 286 287 287 287 287 287 287 287 286 286 285 284 284 283 283 283 282 282 281 281 281 281 280 280 279 279 278 278 278 277 277 277 277 277 277
285 285 285 284 284 285 286 287 287 287 287 287 287 286 286 286 285 284 283 283 282 282 282 282 281 281 281 280 280 279 279 279 278 278 277 277 277 277 277 277 277 277
285 285 285 284 285 285 286 287 287 287 287 287 286 286 286 285 285 284 283 282 282 282 282 282 281 281 280 280 279 279 279 278 277 277 277 277 276 276 276 276 277 277
285 285 285 285 285 286 286 286 286 286 287 287 286 286 285 285 284 283 283 282 282 281 281 282 281 281 280 279 279 278 278 278 277 277 276 276 276 276 276 276 276 276
285 285 285 285 285 286 286 286 286 286 286 286 286 285 285 284 284 283 283 282 281 281 281 281 281 281 280 279 278 278 278 277 277 276 276 275 275 275 275 276 276 276
285 285 285 285 286 286 286 286 286 286 286 286 286 285 284 284 283 283 283 282 282 281 281 281 281 280 280 279 278 278 277 276 276 276 275 275 275 275 275 276 276 276
285 285 285 285 286 286 286 286 286 286 286 286 285 285 284 283 283 283 283 282 282 281 281 281 281 280 279 278 278 277 277 276 275 275 274 274 274 274 275 275 275 275
285 285 285 285 285 286 285 285 286 286 286 286 285 284 284 283 282 282 283 282 281 281 281 281 281 280 279 278 277 277 276 275 275 274 273 273 273 273 274 274 274 274
285 285 285 285 285 285 285 285 285 286 285 285 284 284 283 283 282 282 282 282 281 281 280 280 280 279 278 277 277 276 275 275 274 274 273 273 273 273 273 273 273 273
285 285 285 285 285 285 285 285 285 285 285 285 284 283 283 282 282 282 282 281 281 280 280 280 280 279 277 277 276 276 275 274 274 274 273 273 273 273 273 272 272 272
286 285 285 285 285 285 285 285 285 284 284 284 283 283 282 282 281 282 281 281 280 280 280 280 279 278 277 276 276 275 274 274 273 273 273 273 272 272 272 272 272 272
286 285 285 285 285 285 285 285 284 284 283 283 283 282 281 281 281 281 281 280 280 280 279 279 278 277 276 275 275 274 274 273 273 272 272 271 271 271 271 271 272 272
286 286 286 285 285 285 285 285 284 284 283 282 282 281 281 281 280 280 280 279 279 279 278 278 277 277 275 275 274 274 273 273 272 271 271 271 271 271 271 272 272 272
286 286 286 286 286 286 286 285 284 283 282 282 281 281 280 280 279 279 279 279 279 278 278 277 277 276 275 274 274 274 273 272 271 271 271 271 271 271 271 271 272 272
Wind_Speed
23 23 23 23 22 21 20 19 19 19 18 18 17 16 14 13 12 12 12 11 11 11 11 12 12 12 12 11 11 11 11 11 11 11 10 10 10 10 10 10 9 10
23 23 22 22 22 21 21 20 19 19 18 17 16 14 13 12 11 11 11 10 10 11 11 11 12 12 13 13 13 14 14 14 15 15 14 14 13 13 13 13 13 13
22 22 22 22 22 21 20 19 18 17 16 16 15 13 12 11 11 10 10 10 11 11 12 13 14 15 16 16 16 16 15 15 16 17 16 15 15 16 15 15 15 16
22 22 22 22 22 21 20 19 18 17 16 15 14 13 12 11 10 10 10 11 12 13 14 15 16 16 16 16 15 15 15 15 16 17 15 15 15 16 16 16 15 15
23 23 22 22 21 21 20 19 18 17 16 15 14 12 11 11 10 11 11 12 13 13 13 14 14 14 14 14 14 15 14 14 16 16 16 15 15 16 16 16 16 15
24 23 22 22 21 20 20 19 18 17 16 14 13 12 11 10 10 10 11 11 11 11 11 11 12 12 13 13 13 14 14 14 15 16 16 16 15 16 16 16 15 14
24 23 22 22 21 20 20 19 18 17 15 14 13 11 10 10 10 9 9 9 8 9 9 10 10 11 11 12 12 12 13 14 15 15 15 15 15 15 15 15 15 14
24 23 22 22 21 21 20 19 18 17 15 14 12 11 10 9 9 8 7 7 7 8 8 8 9 9 10 10 11 11 12 13 14 15 15 15 15 15 14 14 14 14
24 23 23 22 21 21 20 19 17 16 15 13 12 11 10 9 8 7 7 6 6 6 6 6 6 7 9 9 10 11 12 12 13 14 14 14 15 14 14 14 14 14
24 24 23 22 21 20 19 18 16 16 15 14 13 12 11 9 8 6 5 4 4 3 3 4 5 6 8 9 11 12 12 13 13 14 14 14 14 14 14 14 13 13
25 24 24 23 21 20 19 18 17 16 15 14 13 12 10 9 7 5 4 3 1 0 1 3 4 6 8 10 12 13 14 14 14 15 15 14 14 14 14 14 13 13
26 25 24 23 20 20 20 19 18 17 16 15 13 11 10 8 7 5 4 3 3 2 2 3 5 7 9 10 12 13 14 15 15 15 15 14 15 14 14 14 14 14
26 25 25 23 21 21 22 21 20 18 17 15 13 11 10 9 7 6 6 5 4 3 3 4 6 7 9 11 12 13 14 15 15 15 15 15 15 15 14 14 15 14
27 26 25 23 23 24 24 23 22 20 17 15 13 11 10 8 8 7 7 6 5 5 4 5 6 8 10 11 12 13 14 15 15 15 15 15 15 16 15 15 15 15
27 26 24 24 25 26 25 24 23 21 18 16 13 12 10 9 8 8 8 7 6 6 6 6 7 9 10 11 12 13 14 15 15 15 16 16 16 16 16 15 15 14
26 27 27 27 27 27 26 25 24 22 19 17 15 14 12 11 10 9 9 8 8 8 8 8 9 10 11 12 13 14 15 15 16 16 16 16 16 17 17 16 14 14
28 29 29 29 29 28 27 26 25 23 20 19 18 17 15 13 12 11 10 10 9 9 10 10 10 11 13 14 14 14 15 16 16 17 16 15 16 16 16 15 14 14
30 31 31 30 29 29 28 27 25 23 21 21 20 19 17 15 14 14 12 12 11 11 11 12 11 12 14 15 15 14 15 15 17 17 16 16 16 15 15 15 15 15
31 32 32 31 31 30 29 27 26 24 23 23 22 20 19 18 17 16 14 14 13 13 13 13 13 13 15 15 15 15 14 15 16 17 17 18 17 17 17 16 16 16
32 32 32 32 32 31 30 29 28 27 25 25 23 22 22 21 19 18 16 15 15 15 15 14 14 14 16 16 15 15 15 15 16 17 18 20 20 20 19 18 18 18
33 33 33 32 32 32 31 30 30 29 28 26 25 25 25 23 21 20 19 17 16 16 16 16 15 15 16 16 15 15 15 15 17 18 19 20 21 20 20 20 20 20
34 34 34 34 33 33 33 33 32 31 29 28 28 27 26 25 23 22 21 19 18 17 17 18 17 15 16 16 15 15 15 16 18 18 19 20 21 20 20 20 18 18
35 36 35 35 34 34 35 35 34 32 31 30 30 28 27 26 25 23 22 20 19 18 18 19 18 15 15 15 15 15 16 17 18 18 19 20 20 19 19 17 15 15
36 36 36 36 35 36 36 35 34 33 32 32 31 29 28 27 26 25 23 21 20 19 19 20 19 16 14 15 15 14 15 17 18 17 17 19 18 17 16 15 14 14
36 36 36 36 36 37 36 35 34 33 33 32 30 29 28 27 26 25 24 22 22 20 19 20 20 17 14 14 14 14 15 16 17 16 15 15 14 14 14 14 13 14
35 36 36 36 36 36 35 34 34 33 32 31 30 29 28 27 26 25 24 23 22 21 20 20 20 17 14 14 14 14 14 15 15 14 14 13 12 12 13 14 14 15
Wind_Direction
148 148 148 146 144 142 141 139 138 135 131 126 120 113 107 101 95 88 82 75 70 65 60 55 49 43 41 37 36 35 32 29 27 25 25 25 22 17 14 13 12 9
154 154 153 150 147 144 143 141 139 136 132 128 123 117 112 106 98 91 85 78 71 64 57 51 45 39 35 31 30 29 24 21 19 15 14 13 11 9 7 4 2 3
158 158 155 152 148 146 145 143 141 139 135 132 127 123 117 109 101 94 85 75 65 54 45 39 33 29 26 24 24 20 14 10 8 8 6 2 359 358 359 357 354 355
161 160 156 153 151 149 149 147 145 142 139 134 129 125 118 110 100 88 75 62 51 41 35 29 25 22 18 15 15 11 6 0 357 358 359 356 351 349 349 348 349 349
164 162 159 157 155 154 154 152 149 145 141 136 130 123 114 101 88 75 62 53 45 38 32 25 20 15 9 6 4 1 359 354 350 349 351 350 346 343 342 342 344 344
167 165 163 162 160 159 158 154 151 147 142 136 129 119 108 95 83 72 62 54 47 39 31 23 14 8 3 360 357 353 351 347 345 344 344 344 341 339 338 337 338 337
170 169 167 166 164 163 161 157 154 149 143 136 128 118 108 98 87 78 70 62 53 43 33 23 15 8 2 358 354 349 346 343 342 341 340 338 335 334 333 330 330 330
173 172 171 170 169 167 165 161 157 151 144 137 130 123 115 109 102 96 88 76 63 50 39 28 18 12 5 359 354 349 344 341 339 337 335 332 329 327 325 323 323 324
176 176 175 174 173 172 169 164 159 152 146 141 136 133 129 126 122 114 104 89 72 56 41 27 16 9 5 359 353 348 343 338 334 331 328 325 323 320 319 318 317 318
181 180 179 179 177 176 172 166 160 155 152 150 148 146 143 141 138 129 120 106 86 66 35 15 6 1 357 354 349 344 339 334 331 328 324 321 317 315 315 314 313 311
186 185 184 183 181 179 175 170 166 164 162 161 160 159 156 154 154 152 152 153 149 140 348 349 350 351 351 348 344 339 335 332 328 325 321 317 314 313 312 310 307 304
191 189 188 186 185 185 182 177 175 174 173 173 171 169 168 169 174 183 193 201 218 249 304 333 340 343 343 341 336 332 330 327 323 320 316 313 313 311 307 305 302 299
194 193 191 189 191 192 187 184 184 183 183 182 180 179 182 187 194 206 219 228 241 269 302 323 333 335 333 330 327 325 323 320 317 315 311 310 310 306 302 300 299 296
197 196 194 193 196 195 191 190 191 191 190 189 188 191 195 203 213 223 234 242 254 276 297 314 322 324 322 319 317 317 316 314 310 306 303 302 301 300 299 297 295 291
198 198 196 197 200 198 196 197 197 197 197 196 199 205 209 216 228 236 243 251 263 277 291 305 312 313 312 309 309 310 308 305 302 298 298 296 296 298 298 296 292 285
200 200 200 202 204 203 202 202 203 203 203 205 210 216 220 227 237 245 250 256 265 277 288 298 304 305 305 303 304 306 303 301 298 296 294 292 292 295 296 295 292 284
204 205 205 207 208 207 207 207 209 209 209 213 218 223 226 232 240 248 255 261 267 275 284 293 298 300 300 300 302 303 301 298 295 293 291 288 290 293 293 291 288 285
208 209 209 211 212 212 211 213 215 216 217 221 224 228 232 235 241 248 256 262 267 273 280 286 292 296 296 297 299 299 296 292 289 288 286 285 286 287 285 284 283 284
211 212 212 214 216 216 216 218 220 222 224 227 229 231 235 238 242 247 254 260 265 271 276 282 289 292 292 294 295 295 290 284 281 281 280 280 282 283 282 282 281 281
214 214 214 217 219 220 220 222 225 227 229 231 232 234 237 239 243 247 252 258 263 268 273 279 285 288 288 290 292 291 287 279 275 276 277 279 280 281 281 280 278 277
216 216 217 219 221 222 224 226 228 230 231 233 235 236 239 240 244 248 252 256 262 266 271 277 282 285 286 288 288 287 282 275 272 273 274 277 279 279 279 279 278 277
218 218 219 221 223 224 226 228 230 231 232 234 236 237 238 240 243 248 252 256 260 264 270 275 280 282 283 285 285 283 278 272 270 272 272 275 278 278 280 282 280 277
220 220 221 223 224 226 228 230 232 233 233 235 236 236 237 240 243 248 252 256 260 264 269 275 278 281 281 282 282 278 273 270 271 273 275 277 279 279 282 283 275 269
222 223 224 225 225 228 231 233 234 234 234 236 236 236 238 241 244 247 251 255 260 264 268 273 278 280 280 280 279 275 270 269 271 274 276 279 280 278 280 279 270 265
225 225 227 227 228 232 235 235 235 235 236 237 237 237 238 241 243 246 251 255 259 263 267 272 277 281 280 278 277 273 269 267 269 272 273 275 275 274 277 278 272 271
228 229 229 230 232 236 237 237 236 236 237 237 236 236 237 239 242 246 250 254 258 263 266 271 277 281 280 278 275 271 267 265 265 267 268 271 273 274 278 281 278 278